Погода в Михайловке

Поиск расширенной информации на нашем сайте:

Полезная информация:

Новости сайта



02.01.2020
Опубликован Долгосрочный прогноз погоды по городам России и ближнего зарубежья на январь 2020 года.
Карты: Прогноз на январь и февраль 2020 года, Сравнение прогнозируемой аномалии приземной температуры воздуха на январь 2020 года по разным моделям.




Погода в Михайловке - сегодня

Время (UTC), дата Ветер
(°,м/с) 
Видим.   Явления Облачность Т
(°С)
Тd
(°С)
f(%) Тe
(°С)
Pmin
(гПа)
dP
(гПа)
Po
(мм)
O2
(г/м3)
Тmin Tmax R s Состояние
почвы
12 22.10.21 200 (Ю) 20000 м    10/3 300 м кучево-дожд., средняя 
[Cb calv|Ac trans]
+4.3 -5.5 49 +2  1018.6  0.9  753  299           
15 22.10.21 200 (Ю) н/о    10/3 300 м кучево-дожд., средняя, верхняя 
[Cb calv|Ac trans|Ci fib]
+4.4 -3.1 58 +1  1018.9  0.3  754  299    +5.6       
18 22.10.21 200 (Ю) н/о    10/5 300 м кучево-дожд., средняя 
[Cb calv|Ac trans]
+3.9 -0.7 72 +1  1018  -0.9  753  299    +5.6  0.0     
21 22.10.21 200 (Ю) н/о  в посл. час ливневой дождь  10/8 300 м кучево-дожд., средняя 
[Cb calv|Ac trans]
+2.7 +1.4 91 1017.9  -0.1  753  300           
00 23.10.21 190 (Ю) н/о  {ливн. осадки}  10/10 600 м 
[Sc diur, vesp]
+3.6 +1.5 86 +1  1017.1  -0.8  752  299           
03 23.10.21 190 (Ю) 10 км  слаб. дождь  10/10 600 м 
[Sc]
+4.2 +2.7 90 +1  1015.6  -1.4  751  298           
06 23.10.21 200 (Ю) 20000 м  {дождь}  10/8 300 м кучево-дожд., средняя 
[Cb calv|Ac trans]
+5.8 +3.9 88 +3  1014  -1.5  750  295  +2.5    0.0     
09 23.10.21 210 (ЮЗ) 20000 м    10/8 300 м кучево-дожд., средняя 
[Cb calv|Ac trans]
+7.3 +3.5 77 +5  1013.6  -0.3  750  294           
12 23.10.21 220 (ЮЗ) 20000 м    10/8 300 м кучево-дожд., средняя 
[Cb calv|Ac trans]
+8.3 +3.7 73 +6  1014.9  1.3  751  293           
15 23.10.21 210 (ЮЗ) н/о    10/8 300 м кучево-дожд., средняя 
[Cb calv|Ac trans]
+9.1 +4.6 73 +8  1015.8  0.9  752  292    +9.2       
18 23.10.21 220 (ЮЗ) н/о    10/0 средняя, верхняя 
[Ac trans|Ci fib]
+9.2 +5.2 76 +8  1015.9  0.1  752  292    +9.2  0.0     
21 23.10.21 220 (ЮЗ) н/о    10/3 300 м кучево-дожд., средняя, верхняя 
[Cb calv|Ac trans|Ci fib]
+10.2 +5.4 72 +9  1016.6  0.8  752  291           
00 24.10.21 220 (ЮЗ) н/о    6/0 средняя, верхняя 
[Ac trans|Ci fib]
+9.3 +5.3 76 +8  1017.4  0.7  753  292           
03 24.10.21 240 (ЮЗ) 20000 м    10/0 средняя, верхняя 
[Ac trans|Ci fib]
+8.3 +5.2 81 +6  1019.5  754  294           
06 24.10.21 200 (Ю) 20000 м    8/0 средняя 
[Ac trans]
+10.8 +5.3 69 +10  1020.1  0.7  755  292  +8.3         
09 24.10.21 230 (ЮЗ) 20000 м    3/0 верхняя 
[Ci fib]
+14.3 +6.9 61 +14  1019.4  -0.5  754  288           
12 24.10.21 220 (ЮЗ) 20000 м    10/6 300 м кучево-дожд., средняя 
[Cb calv|Ac trans]
+12.4 +6.8 69 +12  1020.1  0.6  755  290           
15 24.10.21 200 (Ю) н/о    10/6 300 м кучево-дожд., средняя 
[Cb calv|Ac trans]
+9.4 +6.4 82 +9  1020.5  0.3  755  293    +14.5       
18 24.10.21 190 (Ю) н/о    10/3 300 м кучево-дожд., средняя 
[Cb calv|Ac trans]
+8.1 +6.1 87 +7  1019.6  -1  754  294    +14.5       
21 24.10.21 190 (Ю) н/о    10/0 средняя, верхняя 
[Ac trans|Ci fib]
+6.3 +1.8 73 +5  1018.4  -1.3  753  296           
00 25.10.21 190 (Ю) н/о    4/0 средняя, верхняя 
[Ac trans|Ci fib]
+3.8 -0.5 73 +1  1016.9  -1.6  752  299           
03 25.10.21 210 (ЮЗ) 20000 м    10/0 средняя, верхняя 
[Ac trans|Ci fib]
+5.7 -1.7 59 +4  1016.8  752  297           
06 25.10.21 220 (ЮЗ) 20000 м    6/0 верхняя 
[Ci fib]
+11.4 -1.9 39 +10  1015.9  -0.6  752  291  +3.6         
09 25.10.21 230 (ЮЗ) 20000 м    5/0 верхняя 
[Ci fib]
+13.3 -0.6 38 +13  1016.1  0.3  752  289           
12 25.10.21 210 (ЮЗ) 20000 м    4/0 верхняя 
[Ci fib]
+7.5 +0.4 61 +7  1017.2  0.8  752  295           
Время (UTC), дата Ветер
(°,м/с) 
Видим.   Явления Облачность Т
(°С)
Тd
(°С)
f(%) Тe
(°С)
Pmin
(гПа)
dP
(гПа)
Po
(мм)
O2
(г/м3)
Тmin Tmax R s Состояние
почвы

Для получения пояснительной информации подведите курсор к названию столбца.

ПОГОДА в Михайловке - архив

Всё, что Вы хотите узнать о погоде в Михайловке - удобно и подробно!

Выберите нужную дату (начиная с 1 января 2019* года) и нажмите кнопку "Найти".
Будут отображены архивные сводки погоды по пункту Михайловка, начиная с указанной даты.


Отображать данные в формате CSV (для использования в таблицах Excel)


Внимание! Наш архив погоды предназначен исключительно для личного некоммерческого использования в познавательных целях. Если Вам необходимы официальные справки о состоянии погоды (для производственных, юридических, коммерческих и т.п. целей), обращайтесь в органы Росгидромета.

*Примечание: данная дата относится к архиву по метеостанциям СССР (Россия, СНГ, Балтия).
Архив по метеостанциям Зарубежной Европы и Азии (кроме Китая) хранится 10 дней, по другим регионам земного шара (Китай, Африка, Америка, Австралия, Океания) - 1 день.

Михайловка - район местоположения метеостанции


Название, широта, долгота, высота метеостанции:
Михайловка 53.8°ш. 76.5°д. 114 м над ур. моря [Казахстан]

Дополнительная информация

В oтличие oт бoльшинства пoгoдных сайтoв мы публикуем пoдрoбную метеoинфoрмацию в детальнoм прoфессиoнальнoм фoрмате.

Характеристики температуры и влажнoсти вoздуха измеряются на высoте 2 м в тени вдали oт зданий и деревьев.
Скoрoсть ветра измеряется на высoте 10 м (на урoвне рoста челoвека скoрoсть ветра ниже в 1.5-2 раза). Если метеoстанция нахoдится в гoрoде или в лесу, тo скoрoсть ветра занижена на 2-4 м/с пo сравнению с oткрытым местoм. Скoрoсть ветра над акватoриями крупных рек и oзёр, а также на вершинах хoлмoв на 2-5 м/с выше, чем в oбычных услoвиях.
Атмoсфернoе давление в разных тoчках местнoсти мoжет значительнo oтличаться oт давления на метеoстанции, в зависимoсти oт услoвий рельефа (при пoдъёме на 10 м давление пoнижается примернo на 1 мм рт.ст.).